Time,TemperatureF,DewpointF,PressureIn,WindDirection,WindDirectionDegrees,WindSpeedMPH,WindSpeedGustMPH,Humidity,HourlyPrecipIn,Conditions,Clouds,dailyrainin,SoftwareType,DateUTC
2013-09-29 00:01:00,44.6,43.3,29.86,WSW,246,0.0,0.0,95,0.00,,SKC,0.00,VWS V14.01,2013-09-29 05:01:00,
2013-09-29 00:06:00,44.7,43.6,29.86,WSW,246,0.0,0.0,96,0.00,,SKC,0.00,VWS V14.01,2013-09-29 05:06:00,
2013-09-29 00:11:00,44.8,43.7,29.86,WSW,246,0.0,0.0,96,0.00,,SKC,0.00,VWS V14.01,2013-09-29 05:11:00,
2013-09-29 00:16:00,44.9,43.6,29.86,WSW,246,0.0,1.0,95,0.00,,SKC,0.00,VWS V14.01,2013-09-29 05:16:00,
2013-09-29 00:21:00,44.8,43.5,29.86,WSW,246,0.0,1.0,95,0.00,,SKC,0.00,VWS V14.01,2013-09-29 05:21:00,
2013-09-29 00:26:00,44.9,43.8,29.86,WSW,246,0.0,1.0,96,0.00,,SKC,0.00,VWS V14.01,2013-09-29 05:26:00,
2013-09-29 00:31:00,45.1,43.8,29.86,WSW,246,0.0,0.0,95,0.00,,SKC,0.00,VWS V14.01,2013-09-29 05:31:00,
2013-09-29 00:36:00,45.1,43.8,29.86,WSW,246,0.0,1.0,95,0.00,,SKC,0.00,VWS V14.01,2013-09-29 05:36:00,
2013-09-29 00:41:00,45.1,43.8,29.86,WSW,246,0.0,1.0,95,0.00,,SKC,0.00,VWS V14.01,2013-09-29 05:41:00,
2013-09-29 00:46:00,45.2,43.9,29.86,WSW,246,0.0,1.0,95,0.00,,SKC,0.00,VWS V14.01,2013-09-29 05:46:00,
2013-09-29 00:51:00,45.1,43.8,29.86,WSW,246,0.0,1.0,95,0.00,,SKC,0.00,VWS V14.01,2013-09-29 05:51:00,
2013-09-29 00:56:00,45.1,43.8,29.86,WSW,246,0.0,1.0,95,0.00,,SKC,0.00,VWS V14.01,2013-09-29 05:56:00,
2013-09-29 01:01:00,45.0,43.7,29.86,WSW,246,0.0,0.0,95,0.00,,SKC,0.00,VWS V14.01,2013-09-29 06:01:00,
2013-09-29 01:06:00,44.9,43.6,29.87,WSW,246,0.0,0.0,95,0.00,,SKC,0.00,VWS V14.01,2013-09-29 06:06:00,
2013-09-29 01:11:00,44.7,43.4,29.87,WSW,246,0.0,0.0,95,0.00,,SKC,0.00,VWS V14.01,2013-09-29 06:11:00,
2013-09-29 01:16:00,44.6,43.0,29.87,WSW,246,0.0,0.0,94,0.00,,SKC,0.00,VWS V14.01,2013-09-29 06:16:00,
2013-09-29 01:21:00,44.4,42.8,29.87,WSW,246,0.0,0.0,94,0.00,,SKC,0.00,VWS V14.01,2013-09-29 06:21:00,
2013-09-29 01:26:00,44.5,43.2,29.87,WSW,246,0.0,0.0,95,0.00,,SKC,0.00,VWS V14.01,2013-09-29 06:26:00,
2013-09-29 01:31:00,44.5,43.2,29.87,WSW,246,0.0,0.0,95,0.00,,SKC,0.00,VWS V14.01,2013-09-29 06:31:00,
2013-09-29 01:36:00,44.5,43.2,29.87,WSW,246,0.0,0.0,95,0.00,,SKC,0.00,VWS V14.01,2013-09-29 06:36:00,
2013-09-29 01:41:00,44.7,43.6,29.87,WSW,246,0.0,1.0,96,0.00,,SKC,0.00,VWS V14.01,2013-09-29 06:41:00,
2013-09-29 01:46:00,44.8,43.5,29.87,WSW,246,0.0,1.0,95,0.00,,SKC,0.00,VWS V14.01,2013-09-29 06:46:00,
2013-09-29 01:51:00,44.9,43.8,29.87,WSW,246,0.0,1.0,96,0.00,,SKC,0.00,VWS V14.01,2013-09-29 06:51:00,
2013-09-29 01:56:00,45.1,44.0,29.88,WSW,246,0.0,1.0,96,0.00,,SKC,0.00,VWS V14.01,2013-09-29 06:56:00,
2013-09-29 02:01:00,45.3,44.0,29.88,WSW,246,0.0,0.0,95,0.00,,SKC,0.00,VWS V14.01,2013-09-29 07:01:00,
2013-09-29 02:06:00,45.4,44.3,29.87,WSW,246,0.0,0.0,96,0.00,,SKC,0.00,VWS V14.01,2013-09-29 07:06:00,
2013-09-29 02:11:00,45.6,44.5,29.87,WSW,246,0.0,0.0,96,0.00,,SKC,0.00,VWS V14.01,2013-09-29 07:11:00,
2013-09-29 02:16:00,45.9,44.8,29.87,WSW,246,0.0,3.0,96,0.00,,SKC,0.00,VWS V14.01,2013-09-29 07:16:00,
2013-09-29 02:21:00,46.1,44.8,29.87,WSW,245,0.0,3.0,95,0.00,,SKC,0.00,VWS V14.01,2013-09-29 07:21:00,
2013-09-29 02:26:00,46.3,45.0,29.87,WSW,245,0.0,3.0,95,0.00,,SKC,0.00,VWS V14.01,2013-09-29 07:26:00,
2013-09-29 02:31:00,46.4,44.8,29.87,SSE,161,0.0,2.0,94,0.00,,SKC,0.00,VWS V14.01,2013-09-29 07:31:00,
2013-09-29 02:36:00,46.6,45.0,29.87,SSE,160,0.0,2.0,94,0.00,,SKC,0.00,VWS V14.01,2013-09-29 07:36:00,
2013-09-29 02:41:00,46.7,45.1,29.87,SSE,160,0.0,2.0,94,0.00,,SKC,0.00,VWS V14.01,2013-09-29 07:41:00,
2013-09-29 02:46:00,46.8,44.9,29.87,SSE,160,0.0,2.0,93,0.00,,SKC,0.00,VWS V14.01,2013-09-29 07:46:00,
2013-09-29 02:51:00,46.8,44.9,29.87,SSE,160,1.0,2.0,93,0.00,,SKC,0.00,VWS V14.01,2013-09-29 07:51:00,
2013-09-29 02:56:00,46.9,45.0,29.87,SSE,157,0.0,2.0,93,0.00,,SKC,0.00,VWS V14.01,2013-09-29 07:56:00,
2013-09-29 03:01:00,46.8,44.6,29.86,SSE,157,0.0,0.0,92,0.00,,SKC,0.00,VWS V14.01,2013-09-29 08:01:00,
2013-09-29 03:06:00,46.6,44.4,29.86,SSE,157,0.0,0.0,92,0.00,,SKC,0.00,VWS V14.01,2013-09-29 08:06:00,
2013-09-29 03:11:00,46.6,44.4,29.87,SSE,157,0.0,0.0,92,0.00,,SKC,0.00,VWS V14.01,2013-09-29 08:11:00,
2013-09-29 03:16:00,46.5,44.3,29.87,South,182,0.0,0.0,92,0.00,,SKC,0.00,VWS V14.01,2013-09-29 08:16:00,
2013-09-29 03:21:00,46.4,44.2,29.87,South,182,0.0,0.0,92,0.00,,SKC,0.00,VWS V14.01,2013-09-29 08:21:00,
2013-09-29 03:26:00,46.2,44.0,29.87,South,182,0.0,0.0,92,0.00,,SKC,0.00,VWS V14.01,2013-09-29 08:26:00,
2013-09-29 03:31:00,46.1,43.9,29.87,SSW,192,0.0,0.0,92,0.00,,SKC,0.00,VWS V14.01,2013-09-29 08:31:00,
2013-09-29 03:36:00,45.9,43.7,29.87,SSW,192,0.0,0.0,92,0.00,,SKC,0.00,VWS V14.01,2013-09-29 08:36:00,
2013-09-29 03:41:00,45.9,44.0,29.87,SSW,192,0.0,0.0,93,0.00,,SKC,0.00,VWS V14.01,2013-09-29 08:41:00,
2013-09-29 03:46:00,45.8,43.6,29.87,SSW,192,0.0,0.0,92,0.00,,SKC,0.00,VWS V14.01,2013-09-29 08:46:00,
2013-09-29 03:51:00,45.8,43.9,29.87,SSW,192,0.0,0.0,93,0.00,,SKC,0.00,VWS V14.01,2013-09-29 08:51:00,
2013-09-29 03:56:00,45.8,43.9,29.87,South,180,0.0,0.0,93,0.00,,SKC,0.00,VWS V14.01,2013-09-29 08:56:00,
2013-09-29 04:01:00,45.9,44.0,29.87,South,189,0.0,1.0,93,0.00,,SKC,0.00,VWS V14.01,2013-09-29 09:01:00,
2013-09-29 04:06:00,46.1,44.2,29.87,South,189,0.0,1.0,93,0.00,,SKC,0.00,VWS V14.01,2013-09-29 09:06:00,
2013-09-29 04:11:00,45.9,43.7,29.87,South,189,0.0,1.0,92,0.00,,SKC,0.00,VWS V14.01,2013-09-29 09:11:00,
2013-09-29 04:16:00,45.8,43.6,29.87,South,189,0.0,1.0,92,0.00,,SKC,0.00,VWS V14.01,2013-09-29 09:16:00,
2013-09-29 04:21:00,45.8,43.6,29.87,South,189,0.0,1.0,92,0.00,,SKC,0.00,VWS V14.01,2013-09-29 09:21:00,
2013-09-29 04:26:00,45.6,43.4,29.87,South,189,0.0,1.0,92,0.00,,SKC,0.00,VWS V14.01,2013-09-29 09:26:00,
2013-09-29 04:31:00,45.5,43.3,29.87,South,189,0.0,0.0,92,0.00,,SKC,0.00,VWS V14.01,2013-09-29 09:31:00,
2013-09-29 04:36:00,45.4,43.5,29.87,South,189,0.0,0.0,93,0.00,,SKC,0.00,VWS V14.01,2013-09-29 09:36:00,
2013-09-29 04:41:00,45.5,43.6,29.88,South,189,0.0,0.0,93,0.00,,SKC,0.00,VWS V14.01,2013-09-29 09:41:00,
2013-09-29 04:46:00,45.4,43.5,29.88,South,189,0.0,0.0,93,0.00,,SKC,0.00,VWS V14.01,2013-09-29 09:46:00,
2013-09-29 04:51:00,45.4,43.5,29.88,South,189,0.0,0.0,93,0.00,,SKC,0.00,VWS V14.01,2013-09-29 09:51:00,
2013-09-29 04:56:00,45.3,43.4,29.88,South,189,0.0,0.0,93,0.00,,SKC,0.00,VWS V14.01,2013-09-29 09:56:00,
2013-09-29 05:01:00,45.2,43.3,29.88,South,189,0.0,0.0,93,0.00,,SKC,0.00,VWS V14.01,2013-09-29 10:01:00,
2013-09-29 05:06:00,45.2,43.3,29.88,South,189,0.0,0.0,93,0.00,,SKC,0.00,VWS V14.01,2013-09-29 10:06:00,
2013-09-29 05:11:00,45.2,43.3,29.88,South,170,0.0,0.0,93,0.00,,SKC,0.00,VWS V14.01,2013-09-29 10:11:00,
2013-09-29 05:16:00,45.2,43.3,29.88,South,170,0.0,1.0,93,0.00,,SKC,0.00,VWS V14.01,2013-09-29 10:16:00,
2013-09-29 05:21:00,45.2,43.0,29.88,South,170,0.0,1.0,92,0.00,,SKC,0.00,VWS V14.01,2013-09-29 10:21:00,
2013-09-29 05:26:00,45.0,42.8,29.88,South,170,0.0,1.0,92,0.00,,SKC,0.00,VWS V14.01,2013-09-29 10:26:00,
2013-09-29 05:31:00,44.8,42.6,29.88,South,170,0.0,0.0,92,0.00,,SKC,0.00,VWS V14.01,2013-09-29 10:31:00,
2013-09-29 05:36:00,44.5,42.3,29.88,South,170,0.0,0.0,92,0.00,,SKC,0.00,VWS V14.01,2013-09-29 10:36:00,
2013-09-29 05:41:00,44.3,42.4,29.88,South,170,0.0,0.0,93,0.00,,SKC,0.00,VWS V14.01,2013-09-29 10:41:00,
2013-09-29 05:46:00,44.1,42.2,29.88,South,170,0.0,0.0,93,0.00,,SKC,0.00,VWS V14.01,2013-09-29 10:46:00,
2013-09-29 05:51:00,43.8,41.9,29.88,South,170,0.0,0.0,93,0.00,,SKC,0.00,VWS V14.01,2013-09-29 10:51:00,
2013-09-29 05:56:00,43.7,42.1,29.88,South,170,0.0,0.0,94,0.00,,SKC,0.00,VWS V14.01,2013-09-29 10:56:00,
2013-09-29 06:01:00,43.5,41.9,29.88,South,170,0.0,0.0,94,0.00,,SKC,0.00,VWS V14.01,2013-09-29 11:01:00,
2013-09-29 06:06:00,43.4,41.8,29.89,South,170,0.0,0.0,94,0.00,,SKC,0.00,VWS V14.01,2013-09-29 11:06:00,
2013-09-29 06:11:00,43.2,41.6,29.89,South,170,0.0,0.0,94,0.01,,SKC,0.01,VWS V14.01,2013-09-29 11:11:00,
2013-09-29 06:16:00,43.1,41.5,29.89,South,170,0.0,0.0,94,0.01,,SKC,0.01,VWS V14.01,2013-09-29 11:16:00,
2013-09-29 06:21:00,43.0,41.4,29.89,South,170,0.0,0.0,94,0.01,,SKC,0.01,VWS V14.01,2013-09-29 11:21:00,
2013-09-29 06:26:00,42.9,41.3,29.89,South,170,0.0,0.0,94,0.01,,SKC,0.01,VWS V14.01,2013-09-29 11:26:00,
2013-09-29 06:31:00,42.9,41.6,29.89,South,170,0.0,0.0,95,0.01,,SKC,0.01,VWS V14.01,2013-09-29 11:31:00,
2013-09-29 06:36:00,42.8,41.5,29.90,South,170,0.0,0.0,95,0.01,,SKC,0.01,VWS V14.01,2013-09-29 11:36:00,
2013-09-29 06:41:00,42.9,41.6,29.90,South,170,0.0,0.0,95,0.01,,SKC,0.01,VWS V14.01,2013-09-29 11:41:00,
2013-09-29 06:46:00,42.8,41.5,29.90,South,170,0.0,1.0,95,0.01,,SKC,0.01,VWS V14.01,2013-09-29 11:46:00,
2013-09-29 06:51:00,42.8,41.5,29.90,South,170,0.0,1.0,95,0.01,,SKC,0.01,VWS V14.01,2013-09-29 11:51:00,
2013-09-29 06:56:00,42.8,41.5,29.90,South,170,0.0,1.0,95,0.01,,SKC,0.01,VWS V14.01,2013-09-29 11:56:00,
2013-09-29 07:01:00,42.8,41.5,29.90,South,170,0.0,0.0,95,0.01,,SKC,0.01,VWS V14.01,2013-09-29 12:01:00,
2013-09-29 07:06:00,42.9,41.6,29.90,South,170,0.0,0.0,95,0.01,,SKC,0.01,VWS V14.01,2013-09-29 12:06:00,
2013-09-29 07:11:00,43.0,41.7,29.90,South,170,0.0,1.0,95,0.01,,SKC,0.01,VWS V14.01,2013-09-29 12:11:00,
2013-09-29 07:16:00,43.0,41.7,29.90,South,170,0.0,1.0,95,0.01,,SKC,0.01,VWS V14.01,2013-09-29 12:16:00,
2013-09-29 07:21:00,43.0,41.7,29.90,South,170,0.0,1.0,95,0.01,,SKC,0.01,VWS V14.01,2013-09-29 12:21:00,
2013-09-29 07:26:00,43.0,41.7,29.90,South,170,0.0,1.0,95,0.01,,SKC,0.01,VWS V14.01,2013-09-29 12:26:00,
2013-09-29 07:31:00,43.2,41.9,29.90,South,170,0.0,0.0,95,0.00,,SKC,0.01,VWS V14.01,2013-09-29 12:31:00,
2013-09-29 07:36:00,43.4,42.1,29.90,South,170,0.0,1.0,95,0.00,,SKC,0.01,VWS V14.01,2013-09-29 12:36:00,
2013-09-29 07:41:00,43.7,42.4,29.90,South,170,0.0,1.0,95,0.00,,SKC,0.01,VWS V14.01,2013-09-29 12:41:00,
2013-09-29 07:46:00,44.3,43.0,29.90,South,170,0.0,1.0,95,0.00,,SKC,0.01,VWS V14.01,2013-09-29 12:46:00,
2013-09-29 07:51:00,44.8,43.2,29.90,South,170,0.0,1.0,94,0.00,,SKC,0.01,VWS V14.01,2013-09-29 12:51:00,
2013-09-29 07:56:00,45.4,43.8,29.90,South,170,0.0,1.0,94,0.00,,SKC,0.01,VWS V14.01,2013-09-29 12:56:00,
2013-09-29 08:01:00,46.0,44.4,29.90,SSE,148,0.0,0.0,94,0.00,,SKC,0.01,VWS V14.01,2013-09-29 13:01:00,
2013-09-29 08:06:00,46.6,44.4,29.90,SSE,147,1.0,2.0,92,0.00,,SKC,0.01,VWS V14.01,2013-09-29 13:06:00,
2013-09-29 08:11:00,46.9,44.4,29.90,ESE,123,0.0,5.0,91,0.00,,SKC,0.01,VWS V14.01,2013-09-29 13:11:00,
2013-09-29 08:16:00,47.3,44.8,29.90,ESE,120,2.0,6.0,91,0.00,,SKC,0.01,VWS V14.01,2013-09-29 13:16:00,
2013-09-29 08:21:00,47.7,44.9,29.90,ESE,119,0.0,6.0,90,0.00,,SKC,0.01,VWS V14.01,2013-09-29 13:21:00,
2013-09-29 08:26:00,48.1,45.0,29.90,ESE,119,0.0,6.0,89,0.00,,SKC,0.01,VWS V14.01,2013-09-29 13:26:00,
2013-09-29 08:31:00,48.5,45.1,29.90,ESE,119,0.0,5.0,88,0.00,,SKC,0.01,VWS V14.01,2013-09-29 13:31:00,
2013-09-29 08:36:00,49.0,45.6,29.90,ESE,119,4.0,5.0,88,0.00,,SKC,0.01,VWS V14.01,2013-09-29 13:36:00,
2013-09-29 08:41:00,49.4,46.0,29.90,ESE,119,2.0,5.0,88,0.00,,SKC,0.01,VWS V14.01,2013-09-29 13:41:00,
2013-09-29 08:46:00,49.9,46.2,29.90,ESE,119,2.0,5.0,87,0.00,,SKC,0.01,VWS V14.01,2013-09-29 13:46:00,
2013-09-29 08:51:00,50.3,46.0,29.90,SSE,167,0.0,5.0,85,0.00,,SKC,0.01,VWS V14.01,2013-09-29 13:51:00,
2013-09-29 08:56:00,50.6,46.0,29.90,ESE,115,5.0,6.0,84,0.00,,SKC,0.01,VWS V14.01,2013-09-29 13:56:00,
2013-09-29 09:01:00,51.0,46.7,29.89,ESE,115,2.0,5.0,85,0.00,,SKC,0.01,VWS V14.01,2013-09-29 14:01:00,
2013-09-29 09:06:00,51.4,47.0,29.89,ESE,116,0.0,5.0,85,0.00,,SKC,0.01,VWS V14.01,2013-09-29 14:06:00,
2013-09-29 09:11:00,51.8,47.1,29.90,ESE,116,0.0,5.0,84,0.00,,SKC,0.01,VWS V14.01,2013-09-29 14:11:00,
2013-09-29 09:16:00,52.3,47.6,29.90,ESE,115,0.0,5.0,84,0.00,,SKC,0.01,VWS V14.01,2013-09-29 14:16:00,
2013-09-29 09:21:00,53.1,48.1,29.90,ESE,115,1.0,5.0,83,0.00,,SKC,0.01,VWS V14.01,2013-09-29 14:21:00,
2013-09-29 09:26:00,53.5,47.8,29.90,ESE,115,0.0,5.0,81,0.00,,SKC,0.01,VWS V14.01,2013-09-29 14:26:00,
2013-09-29 09:31:00,53.9,47.5,29.91,ESE,115,0.0,1.0,79,0.00,,SKC,0.01,VWS V14.01,2013-09-29 14:31:00,
2013-09-29 09:36:00,54.5,48.8,29.91,ESE,115,0.0,4.0,81,0.00,,SKC,0.01,VWS V14.01,2013-09-29 14:36:00,
2013-09-29 09:41:00,55.0,48.6,29.90,ESE,117,0.0,4.0,79,0.00,,SKC,0.01,VWS V14.01,2013-09-29 14:41:00,
2013-09-29 09:46:00,55.4,48.0,29.90,ESE,117,0.0,4.0,76,0.00,,SKC,0.01,VWS V14.01,2013-09-29 14:46:00,
2013-09-29 09:51:00,55.9,49.2,29.90,ESE,117,1.0,4.0,78,0.00,,SKC,0.01,VWS V14.01,2013-09-29 14:51:00,
2013-09-29 09:56:00,56.1,48.3,29.90,ESE,117,0.0,5.0,75,0.00,,SKC,0.01,VWS V14.01,2013-09-29 14:56:00,
2013-09-29 10:01:00,56.3,48.8,29.90,ESE,116,2.0,5.0,76,0.00,,SKC,0.01,VWS V14.01,2013-09-29 15:01:00,
2013-09-29 10:06:00,56.5,48.7,29.90,ESE,113,0.0,6.0,75,0.00,,SKC,0.01,VWS V14.01,2013-09-29 15:06:00,
2013-09-29 10:11:00,56.9,48.7,29.90,ESE,111,1.0,6.0,74,0.00,,SKC,0.01,VWS V14.01,2013-09-29 15:11:00,
2013-09-29 10:16:00,57.4,49.9,29.90,ESE,111,2.0,6.0,76,0.00,,SKC,0.01,VWS V14.01,2013-09-29 15:16:00,
2013-09-29 10:21:00,57.9,49.3,29.90,ESE,111,0.0,6.0,73,0.00,,SKC,0.01,VWS V14.01,2013-09-29 15:21:00,
2013-09-29 10:26:00,58.4,49.8,29.90,ESE,111,4.0,6.0,73,0.00,,SKC,0.01,VWS V14.01,2013-09-29 15:26:00,
2013-09-29 10:31:00,58.6,49.6,29.90,WNW,288,0.0,1.0,72,0.00,,SKC,0.01,VWS V14.01,2013-09-29 15:31:00,
2013-09-29 10:36:00,58.9,49.5,29.90,ESE,113,0.0,6.0,71,0.00,,SKC,0.01,VWS V14.01,2013-09-29 15:36:00,
2013-09-29 10:41:00,59.0,49.6,29.89,ESE,110,6.0,6.0,71,0.00,,SKC,0.01,VWS V14.01,2013-09-29 15:41:00,
2013-09-29 10:46:00,59.2,50.2,29.90,ESE,108,0.0,7.0,72,0.00,,SKC,0.01,VWS V14.01,2013-09-29 15:46:00,
2013-09-29 10:51:00,59.5,50.5,29.89,East,98,6.0,7.0,72,0.00,,SKC,0.01,VWS V14.01,2013-09-29 15:51:00,
2013-09-29 10:56:00,59.9,50.1,29.89,ESE,107,0.0,7.0,70,0.00,,SKC,0.01,VWS V14.01,2013-09-29 15:56:00,
2013-09-29 11:01:00,60.4,50.2,29.89,ESE,107,0.0,2.0,69,0.00,,SKC,0.01,VWS V14.01,2013-09-29 16:01:00,
2013-09-29 11:06:00,60.8,50.6,29.89,East,80,3.0,6.0,69,0.00,,SKC,0.01,VWS V14.01,2013-09-29 16:06:00,
2013-09-29 11:11:00,61.0,50.4,29.89,East,80,3.0,6.0,68,0.00,,SKC,0.01,VWS V14.01,2013-09-29 16:11:00,
2013-09-29 11:16:00,61.4,50.8,29.89,ESE,121,0.0,6.0,68,0.00,,SKC,0.01,VWS V14.01,2013-09-29 16:16:00,
2013-09-29 11:21:00,62.0,51.3,29.89,ESE,111,2.0,8.0,68,0.00,,SKC,0.01,VWS V14.01,2013-09-29 16:21:00,
2013-09-29 11:26:00,62.4,51.7,29.89,East,97,1.0,8.0,68,0.00,,SKC,0.01,VWS V14.01,2013-09-29 16:26:00,
2013-09-29 11:31:00,62.9,52.2,29.89,ESE,117,1.0,6.0,68,0.00,,SKC,0.01,VWS V14.01,2013-09-29 16:31:00,
2013-09-29 11:36:00,63.2,50.8,29.89,ESE,109,2.0,7.0,64,0.00,,SKC,0.01,VWS V14.01,2013-09-29 16:36:00,
2013-09-29 11:41:00,63.4,51.4,29.89,SE,124,6.0,7.0,65,0.00,,SKC,0.01,VWS V14.01,2013-09-29 16:41:00,
2013-09-29 11:46:00,63.7,51.7,29.89,ESE,103,0.0,7.0,65,0.00,,SKC,0.01,VWS V14.01,2013-09-29 16:46:00,
2013-09-29 11:51:00,64.1,51.7,29.88,East,100,5.0,8.0,64,0.00,,SKC,0.01,VWS V14.01,2013-09-29 16:51:00,
2013-09-29 11:56:00,64.3,52.3,29.88,East,101,6.0,8.0,65,0.00,,SKC,0.01,VWS V14.01,2013-09-29 16:56:00,
2013-09-29 12:01:00,64.9,52.0,29.88,ESE,111,4.0,9.0,63,0.00,,SKC,0.01,VWS V14.01,2013-09-29 17:01:00,
2013-09-29 12:06:00,65.3,53.2,29.88,ESE,111,4.0,9.0,65,0.00,,SKC,0.01,VWS V14.01,2013-09-29 17:06:00,
2013-09-29 12:11:00,65.6,52.7,29.88,East,100,1.0,9.0,63,0.00,,SKC,0.01,VWS V14.01,2013-09-29 17:11:00,
2013-09-29 12:16:00,66.0,51.7,29.88,ESE,107,4.0,9.0,60,0.00,,SKC,0.01,VWS V14.01,2013-09-29 17:16:00,
2013-09-29 12:21:00,66.4,52.6,29.87,East,101,1.0,9.0,61,0.00,,SKC,0.01,VWS V14.01,2013-09-29 17:21:00,
2013-09-29 12:26:00,66.7,51.9,29.87,East,97,0.0,9.0,59,0.00,,SKC,0.01,VWS V14.01,2013-09-29 17:26:00,
2013-09-29 12:31:00,66.9,52.1,29.87,SE,132,0.0,11.0,59,0.00,,SKC,0.01,VWS V14.01,2013-09-29 17:31:00,
2013-09-29 12:36:00,67.1,52.8,29.87,East,96,2.0,11.0,60,0.00,,SKC,0.01,VWS V14.01,2013-09-29 17:36:00,
2013-09-29 12:41:00,67.4,52.6,29.86,ESE,105,0.0,11.0,59,0.00,,SKC,0.01,VWS V14.01,2013-09-29 17:41:00,
2013-09-29 12:46:00,67.6,53.2,29.86,ESE,111,4.0,11.0,60,0.00,,SKC,0.01,VWS V14.01,2013-09-29 17:46:00,
2013-09-29 12:51:00,67.8,51.5,29.86,SE,142,2.0,11.0,56,0.00,,SKC,0.01,VWS V14.01,2013-09-29 17:51:00,
2013-09-29 12:56:00,68.0,52.7,29.86,ESE,113,4.0,11.0,58,0.00,,SKC,0.01,VWS V14.01,2013-09-29 17:56:00,
2013-09-29 13:01:00,68.2,52.4,29.85,ENE,67,4.0,7.0,57,0.00,,SKC,0.01,VWS V14.01,2013-09-29 18:01:00,
2013-09-29 13:06:00,68.4,52.1,29.85,ESE,109,0.0,12.0,56,0.00,,SKC,0.01,VWS V14.01,2013-09-29 18:06:00,
2013-09-29 13:11:00,68.7,50.9,29.85,ESE,108,1.0,12.0,53,0.00,,SKC,0.01,VWS V14.01,2013-09-29 18:11:00,
2013-09-29 13:16:00,68.9,51.6,29.85,ESE,108,1.0,12.0,54,0.00,,SKC,0.01,VWS V14.01,2013-09-29 18:16:00,
2013-09-29 13:21:00,69.3,52.0,29.85,ENE,74,2.0,12.0,54,0.00,,SKC,0.01,VWS V14.01,2013-09-29 18:21:00,
2013-09-29 13:26:00,69.4,51.0,29.85,East,101,2.0,12.0,52,0.00,,SKC,0.01,VWS V14.01,2013-09-29 18:26:00,
2013-09-29 13:31:00,69.6,51.7,29.85,SE,126,0.0,5.0,53,0.00,,SKC,0.01,VWS V14.01,2013-09-29 18:31:00,
2013-09-29 13:36:00,69.7,51.3,29.84,ESE,119,12.0,12.0,52,0.00,,SKC,0.01,VWS V14.01,2013-09-29 18:36:00,
2013-09-29 13:41:00,69.8,51.4,29.84,NNE,24,0.0,12.0,52,0.00,,SKC,0.01,VWS V14.01,2013-09-29 18:41:00,
2013-09-29 13:46:00,70.1,51.2,29.84,ESE,107,2.0,13.0,51,0.00,,SKC,0.01,VWS V14.01,2013-09-29 18:46:00,
2013-09-29 13:51:00,70.3,52.4,29.83,ESE,114,0.0,13.0,53,0.00,,SKC,0.01,VWS V14.01,2013-09-29 18:51:00,
2013-09-29 13:56:00,70.7,52.2,29.83,ESE,116,8.0,13.0,52,0.00,,SKC,0.01,VWS V14.01,2013-09-29 18:56:00,
2013-09-29 14:01:00,70.8,50.7,29.83,East,93,1.0,4.0,49,0.00,,SKC,0.01,VWS V14.01,2013-09-29 19:01:00,
2013-09-29 14:06:00,70.7,50.1,29.82,East,101,1.0,12.0,48,0.00,,SKC,0.01,VWS V14.01,2013-09-29 19:06:00,
2013-09-29 14:11:00,70.9,49.7,29.82,East,92,7.0,15.0,47,0.00,,SKC,0.01,VWS V14.01,2013-09-29 19:11:00,
2013-09-29 14:16:00,71.0,49.8,29.82,East,93,4.0,15.0,47,0.00,,SKC,0.01,VWS V14.01,2013-09-29 19:16:00,
2013-09-29 14:21:00,71.3,50.0,29.82,ESE,115,5.0,15.0,47,0.00,,SKC,0.01,VWS V14.01,2013-09-29 19:21:00,
2013-09-29 14:26:00,71.5,49.7,29.82,ENE,67,5.0,15.0,46,0.00,,SKC,0.01,VWS V14.01,2013-09-29 19:26:00,
2013-09-29 14:31:00,71.6,49.8,29.82,ESE,109,5.0,7.0,46,0.00,,SKC,0.01,VWS V14.01,2013-09-29 19:31:00,
2013-09-29 14:36:00,71.7,49.2,29.81,ESE,117,6.0,11.0,45,0.00,,SKC,0.01,VWS V14.01,2013-09-29 19:36:00,
2013-09-29 14:41:00,71.6,48.6,29.81,East,100,2.0,13.0,44,0.00,,SKC,0.01,VWS V14.01,2013-09-29 19:41:00,
2013-09-29 14:46:00,71.9,49.4,29.80,ESE,118,0.0,13.0,45,0.00,,SKC,0.01,VWS V14.01,2013-09-29 19:46:00,
2013-09-29 14:48:00,72.0,48.3,29.80,ESE,123,6.0,13.0,43,0.00,,SKC,0.01,VWS V14.01,2013-09-29 19:48:00,
2013-09-29 14:53:00,72.1,49.6,29.80,East,96,0.0,13.0,45,0.00,,SKC,0.01,VWS V14.01,2013-09-29 19:53:00,
2013-09-29 14:58:00,72.3,48.6,29.80,ESE,103,4.0,13.0,43,0.00,,SKC,0.01,VWS V14.01,2013-09-29 19:58:00,
2013-09-29 15:03:00,72.4,48.7,29.80,ESE,117,1.0,6.0,43,0.00,,SKC,0.01,VWS V14.01,2013-09-29 20:03:00,
2013-09-29 15:08:00,72.5,49.4,29.80,ESE,107,1.0,6.0,44,0.00,,SKC,0.01,VWS V14.01,2013-09-29 20:08:00,
2013-09-29 15:13:00,72.6,48.2,29.80,ESE,103,7.0,12.0,42,0.00,,SKC,0.01,VWS V14.01,2013-09-29 20:13:00,
2013-09-29 15:18:00,72.6,48.2,29.80,East,90,5.0,12.0,42,0.00,,SKC,0.01,VWS V14.01,2013-09-29 20:18:00,
2013-09-29 15:23:00,72.6,48.8,29.80,ESE,110,0.0,12.0,43,0.00,,SKC,0.01,VWS V14.01,2013-09-29 20:23:00,
2013-09-29 15:28:00,72.6,48.2,29.80,East,91,8.0,14.0,42,0.00,,SKC,0.01,VWS V14.01,2013-09-29 20:28:00,
2013-09-29 15:33:00,72.6,48.8,29.80,East,83,3.0,14.0,43,0.00,,SKC,0.01,VWS V14.01,2013-09-29 20:33:00,
2013-09-29 15:38:00,72.6,48.2,29.79,SE,125,1.0,14.0,42,0.00,,SKC,0.01,VWS V14.01,2013-09-29 20:38:00,
2013-09-29 15:43:00,72.7,47.7,29.79,East,97,1.0,14.0,41,0.00,,SKC,0.01,VWS V14.01,2013-09-29 20:43:00,
2013-09-29 15:48:00,72.9,50.3,29.79,East,101,1.0,14.0,45,0.00,,SKC,0.01,VWS V14.01,2013-09-29 20:48:00,
2013-09-29 15:53:00,73.0,48.6,29.79,East,92,6.0,14.0,42,0.00,,SKC,0.01,VWS V14.01,2013-09-29 20:53:00,
2013-09-29 15:58:00,73.0,48.6,29.78,ESE,107,0.0,14.0,42,0.00,,SKC,0.01,VWS V14.01,2013-09-29 20:58:00,
2013-09-29 16:03:00,72.9,49.1,29.78,East,101,0.0,6.0,43,0.00,,SKC,0.01,VWS V14.01,2013-09-29 21:03:00,
2013-09-29 16:08:00,72.9,49.7,29.78,East,94,0.0,7.0,44,0.00,,SKC,0.01,VWS V14.01,2013-09-29 21:08:00,
2013-09-29 16:13:00,73.0,48.6,29.78,East,100,4.0,7.0,42,0.00,,SKC,0.01,VWS V14.01,2013-09-29 21:13:00,
2013-09-29 16:18:00,73.0,49.2,29.77,SE,126,2.0,7.0,43,0.00,,SKC,0.01,VWS V14.01,2013-09-29 21:18:00,
2013-09-29 16:23:00,72.9,49.1,29.78,East,101,5.0,8.0,43,0.00,,SKC,0.01,VWS V14.01,2013-09-29 21:23:00,
2013-09-29 16:28:00,72.8,49.6,29.78,East,98,2.0,13.0,44,0.00,,SKC,0.01,VWS V14.01,2013-09-29 21:28:00,
2013-09-29 16:33:00,72.7,49.5,29.77,ESE,122,5.0,9.0,44,0.00,,SKC,0.01,VWS V14.01,2013-09-29 21:33:00,
2013-09-29 16:38:00,72.5,49.4,29.77,East,97,4.0,9.0,44,0.00,,SKC,0.01,VWS V14.01,2013-09-29 21:38:00,
2013-09-29 16:43:00,72.5,49.4,29.77,ESE,115,2.0,10.0,44,0.00,,SKC,0.01,VWS V14.01,2013-09-29 21:43:00,
2013-09-29 16:48:00,72.5,48.8,29.77,East,94,0.0,10.0,43,0.00,,SKC,0.01,VWS V14.01,2013-09-29 21:48:00,
2013-09-29 16:53:00,72.5,49.4,29.77,ESE,111,0.0,10.0,44,0.00,,SKC,0.01,VWS V14.01,2013-09-29 21:53:00,
2013-09-29 16:58:00,72.6,48.2,29.76,East,85,4.0,13.0,42,0.00,,SKC,0.01,VWS V14.01,2013-09-29 21:58:00,
2013-09-29 17:03:00,72.5,48.1,29.76,ESE,109,8.0,10.0,42,0.00,,SKC,0.01,VWS V14.01,2013-09-29 22:03:00,
2013-09-29 17:08:00,72.5,48.1,29.76,East,92,1.0,10.0,42,0.00,,SKC,0.01,VWS V14.01,2013-09-29 22:08:00,
2013-09-29 17:13:00,72.5,48.1,29.76,ESE,117,1.0,12.0,42,0.00,,SKC,0.01,VWS V14.01,2013-09-29 22:13:00,
2013-09-29 17:18:00,72.4,48.0,29.76,ENE,76,0.0,13.0,42,0.00,,SKC,0.01,VWS V14.01,2013-09-29 22:18:00,
2013-09-29 17:23:00,72.4,47.4,29.76,ESE,115,4.0,13.0,41,0.00,,SKC,0.01,VWS V14.01,2013-09-29 22:23:00,
2013-09-29 17:28:00,72.3,48.0,29.76,ESE,115,5.0,13.0,42,0.00,,SKC,0.01,VWS V14.01,2013-09-29 22:28:00,
2013-09-29 17:33:00,72.2,47.9,29.75,ESE,119,5.0,8.0,42,0.00,,SKC,0.01,VWS V14.01,2013-09-29 22:33:00,
2013-09-29 17:38:00,72.1,47.8,29.75,ESE,119,6.0,14.0,42,0.00,,SKC,0.01,VWS V14.01,2013-09-29 22:38:00,
2013-09-29 17:43:00,72.0,48.3,29.75,ESE,123,4.0,14.0,43,0.00,,SKC,0.01,VWS V14.01,2013-09-29 22:43:00,
2013-09-29 17:48:00,71.8,48.1,29.75,ENE,78,1.0,14.0,43,0.00,,SKC,0.01,VWS V14.01,2013-09-29 22:48:00,
2013-09-29 17:53:00,71.6,47.9,29.74,East,101,4.0,14.0,43,0.00,,SKC,0.01,VWS V14.01,2013-09-29 22:53:00,
2013-09-29 17:58:00,71.3,48.3,29.74,ESE,105,4.0,14.0,44,0.00,,SKC,0.01,VWS V14.01,2013-09-29 22:58:00,
2013-09-29 18:03:00,71.0,48.0,29.74,ESE,114,6.0,8.0,44,0.00,,SKC,0.01,VWS V14.01,2013-09-29 23:03:00,
2013-09-29 18:08:00,70.6,47.7,29.74,ESE,110,4.0,8.0,44,0.00,,SKC,0.01,VWS V14.01,2013-09-29 23:08:00,
2013-09-29 18:13:00,70.2,47.9,29.74,ENE,75,5.0,8.0,45,0.00,,SKC,0.01,VWS V14.01,2013-09-29 23:13:00,
2013-09-29 18:18:00,70.0,47.7,29.74,ESE,121,2.0,8.0,45,0.00,,SKC,0.01,VWS V14.01,2013-09-29 23:18:00,
2013-09-29 18:23:00,69.7,47.4,29.74,ESE,119,1.0,8.0,45,0.00,,SKC,0.01,VWS V14.01,2013-09-29 23:23:00,
2013-09-29 18:28:00,69.5,47.8,29.74,ENE,78,3.0,8.0,46,0.00,,SKC,0.01,VWS V14.01,2013-09-29 23:28:00,
2013-09-29 18:33:00,69.2,47.6,29.74,ESE,119,1.0,8.0,46,0.00,,SKC,0.01,VWS V14.01,2013-09-29 23:33:00,
2013-09-29 18:38:00,68.9,47.9,29.74,ESE,103,1.0,8.0,47,0.00,,SKC,0.01,VWS V14.01,2013-09-29 23:38:00,
2013-09-29 18:43:00,68.6,47.6,29.74,ESE,110,4.0,8.0,47,0.00,,SKC,0.01,VWS V14.01,2013-09-29 23:43:00,
2013-09-29 18:48:00,68.3,47.9,29.73,ESE,118,4.0,8.0,48,0.00,,SKC,0.01,VWS V14.01,2013-09-29 23:48:00,
2013-09-29 18:53:00,68.0,47.6,29.74,ESE,118,1.0,8.0,48,0.00,,SKC,0.01,VWS V14.01,2013-09-29 23:53:00,
2013-09-29 18:58:00,67.6,47.8,29.73,ESE,117,4.0,8.0,49,0.00,,SKC,0.01,VWS V14.01,2013-09-29 23:58:00,
2013-09-29 19:03:00,67.2,48.0,29.74,ESE,116,1.0,4.0,50,0.00,,SKC,0.01,VWS V14.01,2013-09-30 00:03:00,
2013-09-29 19:08:00,66.8,48.1,29.74,ESE,110,6.0,7.0,51,0.00,,SKC,0.01,VWS V14.01,2013-09-30 00:08:00,
2013-09-29 19:13:00,66.5,48.3,29.74,SE,129,0.0,8.0,52,0.00,,SKC,0.01,VWS V14.01,2013-09-30 00:13:00,
2013-09-29 19:18:00,66.2,48.1,29.74,ESE,121,6.0,8.0,52,0.00,,SKC,0.01,VWS V14.01,2013-09-30 00:18:00,
2013-09-29 19:23:00,65.9,48.3,29.74,ESE,114,2.0,8.0,53,0.00,,SKC,0.01,VWS V14.01,2013-09-30 00:23:00,
2013-09-29 19:28:00,65.7,48.1,29.74,ESE,121,6.0,8.0,53,0.00,,SKC,0.01,VWS V14.01,2013-09-30 00:28:00,
2013-09-29 19:33:00,65.7,48.1,29.74,ESE,118,2.0,5.0,53,0.00,,SKC,0.01,VWS V14.01,2013-09-30 00:33:00,
2013-09-29 19:38:00,65.5,47.9,29.74,ESE,123,4.0,7.0,53,0.00,,SKC,0.01,VWS V14.01,2013-09-30 00:38:00,
2013-09-29 19:43:00,65.2,48.2,29.74,ESE,121,2.0,7.0,54,0.00,,SKC,0.01,VWS V14.01,2013-09-30 00:43:00,
2013-09-29 19:48:00,64.9,47.9,29.74,SE,130,1.0,7.0,54,0.00,,SKC,0.01,VWS V14.01,2013-09-30 00:48:00,
2013-09-29 19:53:00,64.8,48.3,29.74,ESE,112,4.0,7.0,55,0.00,,SKC,0.01,VWS V14.01,2013-09-30 00:53:00,
2013-09-29 19:58:00,64.6,48.1,29.74,SE,124,7.0,8.0,55,0.00,,SKC,0.01,VWS V14.01,2013-09-30 00:58:00,
2013-09-29 20:03:00,64.5,48.0,29.74,ESE,106,2.0,6.0,55,0.00,,SKC,0.01,VWS V14.01,2013-09-30 01:03:00,
2013-09-29 20:08:00,64.4,47.9,29.74,East,92,4.0,7.0,55,0.00,,SKC,0.01,VWS V14.01,2013-09-30 01:08:00,
2013-09-29 20:13:00,64.2,47.7,29.74,ESE,113,2.0,7.0,55,0.00,,SKC,0.01,VWS V14.01,2013-09-30 01:13:00,
2013-09-29 20:18:00,64.2,48.2,29.74,ESE,117,4.0,8.0,56,0.00,,SKC,0.01,VWS V14.01,2013-09-30 01:18:00,
2013-09-29 20:23:00,64.1,48.1,29.74,East,80,5.0,9.0,56,0.00,,SKC,0.01,VWS V14.01,2013-09-30 01:23:00,
2013-09-29 20:28:00,64.0,48.0,29.74,ESE,121,11.0,11.0,56,0.00,,SKC,0.01,VWS V14.01,2013-09-30 01:28:00,
2013-09-29 20:33:00,64.0,48.0,29.74,ESE,121,5.0,8.0,56,0.00,,SKC,0.01,VWS V14.01,2013-09-30 01:33:00,
2013-09-29 20:38:00,63.9,47.9,29.74,East,92,5.0,8.0,56,0.00,,SKC,0.01,VWS V14.01,2013-09-30 01:38:00,
2013-09-29 20:43:00,63.9,47.9,29.74,ESE,117,4.0,9.0,56,0.00,,SKC,0.01,VWS V14.01,2013-09-30 01:43:00,
2013-09-29 20:48:00,63.7,47.7,29.74,ESE,116,5.0,11.0,56,0.00,,SKC,0.01,VWS V14.01,2013-09-30 01:48:00,
2013-09-29 20:53:00,63.6,47.6,29.74,SE,129,6.0,11.0,56,0.00,,SKC,0.01,VWS V14.01,2013-09-30 01:53:00,
2013-09-29 20:58:00,63.5,47.5,29.74,ESE,111,2.0,11.0,56,0.00,,SKC,0.01,VWS V14.01,2013-09-30 01:58:00,
2013-09-29 21:03:00,63.3,47.8,29.74,ESE,117,2.0,8.0,57,0.00,,SKC,0.01,VWS V14.01,2013-09-30 02:03:00,
2013-09-29 21:08:00,63.0,48.0,29.74,SE,125,4.0,8.0,58,0.00,,SKC,0.01,VWS V14.01,2013-09-30 02:08:00,
2013-09-29 21:13:00,62.9,47.9,29.73,ESE,115,2.0,10.0,58,0.00,,SKC,0.01,VWS V14.01,2013-09-30 02:13:00,
2013-09-29 21:18:00,62.8,47.8,29.74,ESE,111,4.0,10.0,58,0.00,,SKC,0.01,VWS V14.01,2013-09-30 02:18:00,
2013-09-29 21:23:00,62.7,47.7,29.74,ESE,103,5.0,10.0,58,0.00,,SKC,0.01,VWS V14.01,2013-09-30 02:23:00,
2013-09-29 21:28:00,62.5,47.5,29.74,ESE,122,5.0,10.0,58,0.00,,SKC,0.01,VWS V14.01,2013-09-30 02:28:00,
2013-09-29 21:33:00,62.4,47.9,29.74,ESE,115,4.0,7.0,59,0.00,,SKC,0.01,VWS V14.01,2013-09-30 02:33:00,
2013-09-29 21:38:00,62.1,47.6,29.74,ESE,111,1.0,7.0,59,0.00,,SKC,0.01,VWS V14.01,2013-09-30 02:38:00,
2013-09-29 21:43:00,61.9,47.9,29.74,ESE,117,5.0,7.0,60,0.00,,SKC,0.01,VWS V14.01,2013-09-30 02:43:00,
2013-09-29 21:48:00,61.7,47.7,29.73,East,96,0.0,7.0,60,0.00,,SKC,0.01,VWS V14.01,2013-09-30 02:48:00,
2013-09-29 21:53:00,61.4,47.8,29.74,ESE,118,5.0,7.0,61,0.00,,SKC,0.01,VWS V14.01,2013-09-30 02:53:00,
2013-09-29 21:58:00,61.3,47.8,29.73,ESE,109,1.0,7.0,61,0.00,,SKC,0.01,VWS V14.01,2013-09-30 02:58:00,
2013-09-29 22:03:00,61.0,47.9,29.73,ESE,117,0.0,4.0,62,0.00,,SKC,0.01,VWS V14.01,2013-09-30 03:03:00,
2013-09-29 22:08:00,60.7,47.6,29.74,ESE,110,0.0,6.0,62,0.00,,SKC,0.01,VWS V14.01,2013-09-30 03:08:00,
2013-09-29 22:13:00,60.5,47.9,29.74,ESE,113,1.0,6.0,63,0.00,,SKC,0.01,VWS V14.01,2013-09-30 03:13:00,
2013-09-29 22:18:00,60.4,47.8,29.74,ESE,120,0.0,6.0,63,0.00,,SKC,0.01,VWS V14.01,2013-09-30 03:18:00,
2013-09-29 22:23:00,60.3,47.7,29.73,ESE,113,2.0,6.0,63,0.00,,SKC,0.01,VWS V14.01,2013-09-30 03:23:00,
2013-09-29 22:28:00,60.1,47.9,29.73,ESE,111,4.0,6.0,64,0.00,,SKC,0.01,VWS V14.01,2013-09-30 03:28:00,
2013-09-29 22:33:00,60.0,47.8,29.73,ESE,116,5.0,5.0,64,0.00,,SKC,0.01,VWS V14.01,2013-09-30 03:33:00,
2013-09-29 22:38:00,59.9,47.7,29.73,SE,126,2.0,5.0,64,0.00,,SKC,0.01,VWS V14.01,2013-09-30 03:38:00,
2013-09-29 22:43:00,59.8,47.6,29.73,ESE,119,0.0,5.0,64,0.00,,SKC,0.01,VWS V14.01,2013-09-30 03:43:00,
2013-09-29 22:48:00,59.6,47.8,29.73,ESE,119,4.0,5.0,65,0.00,,SKC,0.01,VWS V14.01,2013-09-30 03:48:00,
2013-09-29 22:53:00,59.6,47.8,29.73,ESE,119,0.0,5.0,65,0.00,,SKC,0.01,VWS V14.01,2013-09-30 03:53:00,
2013-09-29 22:58:00,59.5,47.7,29.73,ESE,119,1.0,5.0,65,0.00,,SKC,0.01,VWS V14.01,2013-09-30 03:58:00,
2013-09-29 23:01:00,59.5,47.7,29.73,ESE,119,0.0,4.0,65,0.00,,SKC,0.01,VWS V14.01,2013-09-30 04:01:00,
2013-09-29 23:06:00,59.6,47.8,29.73,ESE,114,0.0,6.0,65,0.00,,SKC,0.01,VWS V14.01,2013-09-30 04:06:00,
2013-09-29 23:11:00,59.7,47.9,29.73,ESE,121,5.0,6.0,65,0.00,,SKC,0.01,VWS V14.01,2013-09-30 04:11:00,
2013-09-29 23:16:00,59.7,47.5,29.73,ESE,118,0.0,7.0,64,0.00,,SKC,0.01,VWS V14.01,2013-09-30 04:16:00,
2013-09-29 23:21:00,59.8,47.6,29.73,ESE,103,4.0,7.0,64,0.00,,SKC,0.01,VWS V14.01,2013-09-30 04:21:00,
2013-09-29 23:26:00,59.8,47.6,29.72,ESE,123,5.0,7.0,64,0.00,,SKC,0.01,VWS V14.01,2013-09-30 04:26:00,
2013-09-29 23:31:00,59.9,47.7,29.72,ESE,118,4.0,7.0,64,0.00,,SKC,0.01,VWS V14.01,2013-09-30 04:31:00,
2013-09-29 23:36:00,60.0,47.8,29.72,ESE,121,4.0,7.0,64,0.00,,SKC,0.01,VWS V14.01,2013-09-30 04:36:00,
2013-09-29 23:41:00,60.2,47.6,29.72,ESE,119,4.0,7.0,63,0.00,,SKC,0.01,VWS V14.01,2013-09-30 04:41:00,
2013-09-29 23:46:00,60.2,47.6,29.72,East,100,7.0,7.0,63,0.00,,SKC,0.01,VWS V14.01,2013-09-30 04:46:00,
2013-09-29 23:51:00,60.3,47.7,29.72,ESE,105,5.0,7.0,63,0.00,,SKC,0.01,VWS V14.01,2013-09-30 04:51:00,
2013-09-29 23:56:00,60.3,47.7,29.72,ESE,110,4.0,7.0,63,0.00,,SKC,0.01,VWS V14.01,2013-09-30 04:56:00,